Powrót do katalogu

FENGYUN 1C DEB

AktywnyPO
NORAD 30716·DEBRIS·🇨🇳 China

Wystrzelony May 10, 1999 z Taiyuan Satellite Launch Center

Loading…

Następne Przeloty (najbliższe 24 godziny)

TLE

ŚwieżeSource: Space-Track

Epoka: Sep 14, 2026, 02:06 UTC

1 30716U 99025ASA 26257.08802686  .00025980  00000-0  23252-2 0  9992
2 30716  98.8555 117.6139 0014043 295.8409 216.8313 14.95749714 19180

Śledź FENGYUN 1C DEB w czasie rzeczywistym z AllMySat

Download on the App Store